When you browse on this site, cookies collect data to enhance your experience and personalize the content and advertising you see.
Visit our Privacy Policy to learn more. By continuing to use the site, you agree to this use of cookies and data.
  • En España
  • Lista de países
  • Para 7 días
  • Temperatura del agua
  • El tiempo en el mapa
  • Informadores
  • user-avatar
    Iniciar sesión

    Tiempo cada hora Repno-Nikolskoe

    Hoy, 17 Agosto, Sábado

    Tiempo Temperatura Precipitaciones Viento Presión Humedad
    00:00 +17°C° 0.1 mm 5 mps 740 mmHg 95%
    01:00 +17°C° 0.1 mm 5 mps 740 mmHg 95%
    02:00 +18°C° 0 mm 4 mps 740 mmHg 93%
    03:00 +18°C° 0 mm 4 mps 740 mmHg 94%
    04:00 +18°C° 0 mm 4 mps 740 mmHg 94%
    05:00 +18°C° 0 mm 4 mps 740 mmHg 95%
    06:00 +19°C° 0.1 mm 4 mps 740 mmHg 94%
    07:00 +19°C° 0.1 mm 4 mps 740 mmHg 93%
    08:00 +20°C° 0.1 mm 4 mps 740 mmHg 91%
    09:00 +20°C° 0.2 mm 4 mps 740 mmHg 89%
    10:00 +21°C° 0.2 mm 4 mps 740 mmHg 86%
    11:00 +22°C° 0.2 mm 4 mps 740 mmHg 84%
    12:00 +21°C° 1.5 mm 4 mps 739 mmHg 86%
    13:00 +21°C° 1.5 mm 4 mps 739 mmHg 88%
    14:00 +20°C° 1.5 mm 4 mps 739 mmHg 91%
    15:00 +20°C° 2.3 mm 3 mps 739 mmHg 93%
    16:00 +19°C° 2.3 mm 2 mps 739 mmHg 95%
    17:00 +20°C° 2.3 mm 1 mps 738 mmHg 97%
    18:00 +20°C° 1.1 mm 1 mps 738 mmHg 97%
    19:00 +18°C° 1.1 mm 2 mps 738 mmHg 97%
    20:00 +18°C° 1.1 mm 2 mps 738 mmHg 97%
    21:00 +18°C° 0.2 mm 2 mps 738 mmHg 97%
    22:00 +18°C° 0.2 mm 2 mps 738 mmHg 96%
    23:00 +18°C° 0.2 mm 2 mps 738 mmHg 96%

    Mañana, 18 Agosto, Domingo

    Tiempo Temperatura Precipitaciones Viento Presión Humedad
    00:00 +17°C° 0 mm 2 mps 738 mmHg 97%
    01:00 +17°C° 0 mm 2 mps 738 mmHg 97%
    02:00 +16°C° 0 mm 2 mps 738 mmHg 97%
    03:00 +16°C° 0 mm 1 mps 738 mmHg 97%
    04:00 +16°C° 0 mm 1 mps 738 mmHg 97%
    05:00 +16°C° 0 mm 1 mps 739 mmHg 98%
    06:00 +18°C° 0 mm 1 mps 739 mmHg 95%
    07:00 +19°C° 0 mm 1 mps 739 mmHg 92%
    08:00 +20°C° 0 mm 1 mps 739 mmHg 89%
    09:00 +19°C° 0 mm 2 mps 740 mmHg 87%
    10:00 +20°C° 0 mm 2 mps 740 mmHg 85%
    11:00 +21°C° 0 mm 2 mps 741 mmHg 82%
    12:00 +21°C° 0.1 mm 3 mps 741 mmHg 80%
    13:00 +21°C° 0.1 mm 3 mps 741 mmHg 78%
    14:00 +22°C° 0.1 mm 3 mps 741 mmHg 76%
    15:00 +22°C° 0 mm 3 mps 742 mmHg 77%
    16:00 +21°C° 0 mm 3 mps 742 mmHg 78%
    17:00 +21°C° 0 mm 3 mps 742 mmHg 79%
    18:00 +19°C° 0 mm 3 mps 743 mmHg 84%
    19:00 +18°C° 0 mm 3 mps 743 mmHg 89%
    20:00 +16°C° 0 mm 2 mps 743 mmHg 94%
    21:00 +16°C° 0 mm 2 mps 744 mmHg 94%
    22:00 +15°C° 0 mm 2 mps 744 mmHg 94%
    23:00 +15°C° 0 mm 1 mps 745 mmHg 94%

    Pasado mañana, 19 Agosto, Lunes

    Tiempo Temperatura Precipitaciones Viento Presión Humedad
    00:00 +15°C° 0 mm 1 mps 745 mmHg 94%
    01:00 +15°C° 0 mm 1 mps 745 mmHg 94%
    02:00 +14°C° 0 mm 1 mps 746 mmHg 94%
    03:00 +14°C° 0 mm 1 mps 746 mmHg 94%
    04:00 +14°C° 0 mm 1 mps 746 mmHg 94%
    05:00 +14°C° 0 mm 1 mps 746 mmHg 95%
    06:00 +16°C° 0 mm 1 mps 747 mmHg 90%
    07:00 +19°C° 0 mm 1 mps 747 mmHg 84%
    08:00 +20°C° 0 mm 1 mps 748 mmHg 79%
    09:00 +21°C° 0 mm 1 mps 748 mmHg 74%
    10:00 +23°C° 0 mm 1 mps 748 mmHg 70%
    11:00 +24°C° 0 mm 1 mps 748 mmHg 65%
    12:00 +24°C° 0 mm 1 mps 748 mmHg 62%
    13:00 +25°C° 0 mm 1 mps 749 mmHg 60%
    14:00 +25°C° 0 mm 1 mps 749 mmHg 57%
    15:00 +25°C° 0 mm 1 mps 749 mmHg 60%
    16:00 +25°C° 0 mm 1 mps 749 mmHg 63%
    17:00 +25°C° 0 mm 1 mps 749 mmHg 66%
    18:00 +23°C° 0 mm 1 mps 749 mmHg 70%
    19:00 +20°C° 0 mm 0 mps 749 mmHg 74%
    20:00 +18°C° 0 mm 0 mps 749 mmHg 78%
    21:00 +19°C° 0 mm 1 mps 749 mmHg 79%
    22:00 +19°C° 0 mm 1 mps 749 mmHg 81%
    23:00 +19°C° 0 mm 1 mps 750 mmHg 82%

    20 Agosto, Martes

    Tiempo Temperatura Precipitaciones Viento Presión Humedad
    00:00 +18°C° 0 mm 1 mps 750 mmHg 84%
    01:00 +18°C° 0 mm 1 mps 750 mmHg 85%
    02:00 +16°C° 0 mm 0 mps 750 mmHg 86%
    03:00 +18°C° 0 mm 1 mps 750 mmHg 86%
    04:00 +18°C° 0 mm 1 mps 750 mmHg 86%
    05:00 +18°C° 0 mm 1 mps 750 mmHg 86%
    06:00 +19°C° 0 mm 1 mps 750 mmHg 82%
    07:00 +21°C° 0 mm 1 mps 750 mmHg 77%
    08:00 +22°C° 0 mm 1 mps 750 mmHg 72%
    09:00 +24°C° 0 mm 1 mps 750 mmHg 68%
    10:00 +25°C° 0 mm 1 mps 750 mmHg 64%
    11:00 +26°C° 0 mm 1 mps 750 mmHg 60%
    12:00 +26°C° 0 mm 1 mps 750 mmHg 58%
    13:00 +27°C° 0 mm 1 mps 750 mmHg 56%
    14:00 +27°C° 0 mm 1 mps 750 mmHg 53%
    15:00 +27°C° 0 mm 1 mps 750 mmHg 57%
    16:00 +27°C° 0 mm 1 mps 750 mmHg 60%
    17:00 +26°C° 0 mm 1 mps 749 mmHg 63%
    18:00 +25°C° 0 mm 1 mps 750 mmHg 66%
    19:00 +23°C° 0 mm 1 mps 750 mmHg 70%
    20:00 +21°C° 0 mm 1 mps 750 mmHg 73%
    21:00 +21°C° 0 mm 1 mps 750 mmHg 75%
    22:00 +20°C° 0 mm 1 mps 750 mmHg 78%
    23:00 +20°C° 0 mm 1 mps 750 mmHg 80%

    21 Agosto, Miércoles

    Tiempo Temperatura Precipitaciones Viento Presión Humedad
    00:00 +20°C° 0 mm 1 mps 750 mmHg 81%
    01:00 +19°C° 0 mm 1 mps 750 mmHg 83%
    02:00 +19°C° 0 mm 1 mps 750 mmHg 84%
    03:00 +19°C° 0 mm 1 mps 750 mmHg 85%
    04:00 +19°C° 0 mm 1 mps 750 mmHg 85%
    05:00 +18°C° 0 mm 2 mps 750 mmHg 86%
    06:00 +19°C° 0 mm 2 mps 750 mmHg 81%
    07:00 +21°C° 0 mm 2 mps 750 mmHg 77%
    08:00 +22°C° 0 mm 3 mps 750 mmHg 72%
    09:00 +24°C° 0 mm 3 mps 750 mmHg 68%
    10:00 +25°C° 0 mm 3 mps 749 mmHg 64%
    11:00 +27°C° 0 mm 3 mps 749 mmHg 60%
    12:00 +27°C° 0 mm 4 mps 749 mmHg 60%
    13:00 +27°C° 0 mm 4 mps 749 mmHg 60%
    14:00 +28°C° 0 mm 4 mps 748 mmHg 60%
    15:00 +27°C° 0 mm 4 mps 748 mmHg 65%
    16:00 +27°C° 0 mm 3 mps 748 mmHg 70%
    17:00 +26°C° 0 mm 3 mps 747 mmHg 74%
    18:00 +25°C° 0 mm 3 mps 747 mmHg 80%
    19:00 +24°C° 0 mm 3 mps 747 mmHg 86%
    20:00 +22°C° 0 mm 3 mps 747 mmHg 91%
    21:00 +21°C° 0 mm 3 mps 747 mmHg 91%
    22:00 +21°C° 0 mm 3 mps 747 mmHg 91%
    23:00 +21°C° 0 mm 3 mps 747 mmHg 91%

    22 Agosto, Jueves

    Tiempo Temperatura Precipitaciones Viento Presión Humedad
    00:00 +21°C° 0 mm 2 mps 746 mmHg 92%
    01:00 +20°C° 0 mm 2 mps 746 mmHg 93%
    02:00 +20°C° 0 mm 2 mps 746 mmHg 93%
    03:00 +20°C° 0 mm 2 mps 746 mmHg 93%
    04:00 +21°C° 0 mm 1 mps 746 mmHg 94%
    05:00 +21°C° 0 mm 1 mps 745 mmHg 94%
    06:00 +22°C° 0 mm 1 mps 745 mmHg 89%
    07:00 +23°C° 0 mm 1 mps 746 mmHg 85%
    08:00 +25°C° 0 mm 1 mps 746 mmHg 80%
    09:00 +26°C° 0 mm 2 mps 746 mmHg 77%
    10:00 +27°C° 0 mm 3 mps 746 mmHg 73%
    11:00 +28°C° 0 mm 3 mps 746 mmHg 69%
    12:00 +29°C° 0 mm 3 mps 746 mmHg 68%
    13:00 +29°C° 0 mm 3 mps 746 mmHg 66%
    14:00 +29°C° 0 mm 3 mps 746 mmHg 65%
    15:00 +28°C° 0 mm 4 mps 747 mmHg 69%
    16:00 +27°C° 0 mm 4 mps 747 mmHg 73%
    17:00 +26°C° 0 mm 5 mps 747 mmHg 77%
    18:00 +23°C° 0 mm 5 mps 747 mmHg 79%
    19:00 +21°C° 0 mm 5 mps 748 mmHg 81%
    20:00 +19°C° 0 mm 5 mps 748 mmHg 83%
    21:00 +19°C° 0 mm 5 mps 749 mmHg 83%
    22:00 +17°C° 0 mm 5 mps 749 mmHg 83%
    23:00 +17°C° 0 mm 5 mps 749 mmHg 83%
    Mostrar más